Private Wetterstation Wechselburg
Wetterdaten: Freitag, 13.08.2021
Datum Zeit Temp. +2m Bodentemp. Temp.+5cm Temp. Wind Windchill X Diff Temp. Feuchte +2m Feuchte +5cm Luftdruck Regen Wind Richtung Richtung Sonnenschein Taupunkt Windchill Windben
13.08.2021 00:00 16,9 C 19,7 C 16,6 C 16,7 C 16,2 C 0,0 C 82 % 87 % 1019,4 hPa 0,0 l/m 0,0 km/h (0 Bft) O-NO 67 0 min 13,8 C 16,2 C 0,0 km/h (0 Bft)
13.08.2021 00:05 16,8 C 19,7 C 16,5 C 16,5 C 16,0 C 0,0 C 82 % 87 % 1019,4 hPa 0,0 l/m 0,0 km/h (0 Bft) O-NO 67 0 min 13,7 C 16,0 C 0,0 km/h (0 Bft)
13.08.2021 00:10 16,8 C 19,7 C 16,5 C 16,5 C 15,8 C 0,0 C 82 % 87 % 1019,4 hPa 0,0 l/m 0,0 km/h (0 Bft) O-NO 67 0 min 13,7 C 15,8 C 0,0 km/h (0 Bft)
13.08.2021 00:15 16,7 C 19,7 C 16,3 C 16,3 C 15,6 C 0,0 C 82 % 87 % 1019,7 hPa 0,0 l/m 0,0 km/h (0 Bft) O-NO 67 0 min 13,6 C 15,6 C 0,0 km/h (0 Bft)
13.08.2021 00:20 16,7 C 19,7 C 16,3 C 16,3 C 15,5 C 0,0 C 82 % 87 % 1019,7 hPa 0,0 l/m 0,0 km/h (0 Bft) O-NO 67 0 min 13,6 C 15,5 C 0,0 km/h (0 Bft)
13.08.2021 00:25 16,7 C 19,7 C 16,1 C 16,2 C 15,3 C 0,0 C 83 % 87 % 1019,7 hPa 0,0 l/m 0,0 km/h (0 Bft) O-NO 67 0 min 13,8 C 15,3 C 0,0 km/h (0 Bft)
13.08.2021 00:30 16,5 C 19,7 C 16,1 C 16,1 C 15,2 C 0,0 C 83 % 87 % 1019,7 hPa 0,0 l/m 0,0 km/h (0 Bft) O-NO 67 0 min 13,6 C 15,2 C 0,0 km/h (0 Bft)
13.08.2021 00:35 16,5 C 19,7 C 15,9 C 16,0 C 15,1 C 0,0 C 83 % 87 % 1019,5 hPa 0,0 l/m 0,0 km/h (0 Bft) O-NO 67 0 min 13,6 C 15,1 C 0,0 km/h (0 Bft)
13.08.2021 00:40 16,4 C 19,7 C 15,9 C 16,0 C 15,1 C 0,0 C 83 % 88 % 1019,5 hPa 0,0 l/m 0,0 km/h (0 Bft) O-NO 67 0 min 13,5 C 15,1 C 0,0 km/h (0 Bft)
13.08.2021 00:45 16,3 C 19,7 C 15,9 C 15,9 C 15,0 C 0,0 C 83 % 88 % 1019,5 hPa 0,0 l/m 0,0 km/h (0 Bft) O-NO 67 0 min 13,4 C 15,0 C 0,0 km/h (0 Bft)
13.08.2021 00:50 16,3 C 19,7 C 15,8 C 15,9 C 15,0 C 0,0 C 83 % 88 % 1019,5 hPa 0,0 l/m 0,0 km/h (0 Bft) O-NO 67 0 min 13,4 C 15,0 C 0,0 km/h (0 Bft)
13.08.2021 00:55 16,1 C 19,7 C 15,7 C 15,7 C 14,8 C 0,0 C 83 % 88 % 1019,5 hPa 0,0 l/m 0,0 km/h (0 Bft) O-NO 67 0 min 13,2 C 14,8 C 0,0 km/h (0 Bft)
13.08.2021 01:00 16,1 C 19,6 C 15,7 C 15,7 C 14,8 C 0,0 C 83 % 88 % 1019,5 hPa 0,0 l/m 0,0 km/h (0 Bft) O-NO 67 0 min 13,2 C 14,8 C 0,0 km/h (0 Bft)
13.08.2021 01:05 16,0 C 19,6 C 15,6 C 15,5 C 14,6 C 0,0 C 83 % 88 % 1019,5 hPa 0,0 l/m 0,0 km/h (0 Bft) O-NO 67 0 min 13,1 C 14,6 C 0,0 km/h (0 Bft)
13.08.2021 01:10 15,9 C 19,6 C 15,5 C 15,5 C 14,6 C 0,0 C 83 % 88 % 1019,5 hPa 0,0 l/m 0,0 km/h (0 Bft) O-NO 67 0 min 13,0 C 14,6 C 0,0 km/h (0 Bft)
13.08.2021 01:15 15,8 C 19,6 C 15,5 C 15,4 C 14,6 C 0,0 C 84 % 88 % 1019,5 hPa 0,0 l/m 0,0 km/h (0 Bft) O-NO 67 0 min 13,1 C 14,6 C 0,0 km/h (0 Bft)
13.08.2021 01:20 15,9 C 19,6 C 15,4 C 15,5 C 14,6 C 0,0 C 84 % 88 % 1019,5 hPa 0,0 l/m 0,0 km/h (0 Bft) O-NO 67 0 min 13,2 C 14,6 C 0,0 km/h (0 Bft)
13.08.2021 01:25 15,7 C 19,6 C 15,5 C 15,3 C 14,6 C 0,0 C 84 % 88 % 1019,5 hPa 0,0 l/m 0,0 km/h (0 Bft) O-NO 67 0 min 13,0 C 14,6 C 0,0 km/h (0 Bft)
13.08.2021 01:30 15,7 C 19,6 C 15,4 C 15,3 C 14,5 C 0,0 C 84 % 88 % 1019,5 hPa 0,0 l/m 0,0 km/h (0 Bft) O-NO 67 0 min 13,0 C 14,5 C 0,0 km/h (0 Bft)
13.08.2021 01:35 15,6 C 19,6 C 15,4 C 15,2 C 14,5 C 0,0 C 84 % 88 % 1019,6 hPa 0,0 l/m 0,0 km/h (0 Bft) O-NO 67 0 min 12,9 C 14,5 C 0,0 km/h (0 Bft)
13.08.2021 01:40 15,6 C 19,6 C 15,3 C 15,3 C 14,6 C 0,0 C 84 % 89 % 1019,6 hPa 0,0 l/m 0,0 km/h (0 Bft) O-NO 67 0 min 12,9 C 14,6 C 0,0 km/h (0 Bft)
13.08.2021 01:45 15,7 C 19,6 C 15,4 C 15,3 C 14,6 C 0,0 C 85 % 89 % 1019,6 hPa 0,0 l/m 0,0 km/h (0 Bft) O-NO 67 0 min 13,2 C 14,6 C 0,0 km/h (0 Bft)
13.08.2021 01:50 15,7 C 19,6 C 15,3 C 15,3 C 14,5 C 0,0 C 85 % 89 % 1019,6 hPa 0,0 l/m 0,0 km/h (0 Bft) O-NO 67 0 min 13,2 C 14,5 C 0,0 km/h (0 Bft)
13.08.2021 01:55 15,6 C 19,6 C 15,2 C 15,2 C 14,5 C 0,0 C 85 % 89 % 1019,3 hPa 0,0 l/m 0,0 km/h (0 Bft) O-NO 67 0 min 13,1 C 14,5 C 0,0 km/h (0 Bft)
13.08.2021 02:00 15,5 C 19,6 C 15,2 C 15,1 C 14,4 C 0,0 C 85 % 89 % 1019,3 hPa 0,0 l/m 0,0 km/h (0 Bft) O-NO 67 0 min 13,0 C 14,4 C 0,0 km/h (0 Bft)
13.08.2021 02:05 15,5 C 19,6 C 15,1 C 15,1 C 14,4 C 0,0 C 85 % 89 % 1019,3 hPa 0,0 l/m 0,0 km/h (0 Bft) O-NO 67 0 min 13,0 C 14,4 C 0,0 km/h (0 Bft)
13.08.2021 02:10 15,5 C 19,6 C 15,1 C 15,1 C 14,3 C 0,0 C 85 % 89 % 1019,3 hPa 0,0 l/m 0,0 km/h (0 Bft) O-NO 67 0 min 13,0 C 14,3 C 0,0 km/h (0 Bft)
13.08.2021 02:15 15,3 C 19,6 C 15,1 C 14,9 C 14,2 C 0,0 C 85 % 89 % 1019,9 hPa 0,0 l/m 0,0 km/h (0 Bft) O-NO 67 0 min 12,8 C 14,2 C 0,0 km/h (0 Bft)
13.08.2021 02:20 15,3 C 19,5 C 15,1 C 14,9 C 14,2 C 0,0 C 85 % 89 % 1019,9 hPa 0,0 l/m 0,0 km/h (0 Bft) O-NO 67 0 min 12,8 C 14,2 C 0,0 km/h (0 Bft)
13.08.2021 02:25 15,2 C 19,5 C 15,0 C 14,9 C 14,2 C 0,0 C 85 % 89 % 1019,9 hPa 0,0 l/m 0,0 km/h (0 Bft) O-NO 67 0 min 12,7 C 14,2 C 0,0 km/h (0 Bft)
13.08.2021 02:30 15,2 C 19,5 C 15,0 C 14,9 C 14,2 C 0,0 C 85 % 89 % 1019,9 hPa 0,0 l/m 0,0 km/h (0 Bft) O-NO 67 0 min 12,7 C 14,2 C 0,0 km/h (0 Bft)
13.08.2021 02:35 15,2 C 19,5 C 15,0 C 14,9 C 14,2 C 0,0 C 86 % 89 % 1019,1 hPa 0,0 l/m 0,0 km/h (0 Bft) O-NO 67 0 min 12,9 C 14,2 C 0,0 km/h (0 Bft)
13.08.2021 02:40 15,3 C 19,5 C 14,9 C 14,9 C 14,2 C 0,0 C 86 % 90 % 1019,1 hPa 0,0 l/m 0,0 km/h (0 Bft) O-NO 67 0 min 13,0 C 14,2 C 0,0 km/h (0 Bft)
13.08.2021 02:45 15,2 C 19,5 C 14,9 C 14,8 C 14,1 C 0,0 C 86 % 90 % 1019,1 hPa 0,0 l/m 0,0 km/h (0 Bft) O-NO 67 0 min 12,9 C 14,1 C 0,0 km/h (0 Bft)
13.08.2021 02:50 15,2 C 19,5 C 14,9 C 14,8 C 14,1 C 0,0 C 86 % 90 % 1019,1 hPa 0,0 l/m 0,0 km/h (0 Bft) O-NO 67 0 min 12,9 C 14,1 C 0,0 km/h (0 Bft)
13.08.2021 02:55 15,1 C 19,5 C 14,9 C 14,8 C 14,1 C 0,0 C 86 % 90 % 1019,1 hPa 0,0 l/m 0,0 km/h (0 Bft) O-NO 67 0 min 12,8 C 14,1 C 0,0 km/h (0 Bft)
13.08.2021 03:00 15,1 C 19,5 C 14,8 C 14,7 C 14,0 C 0,0 C 86 % 90 % 1019,1 hPa 0,0 l/m 0,0 km/h (0 Bft) O-NO 67 0 min 12,8 C 14,0 C 0,0 km/h (0 Bft)
13.08.2021 03:05 15,1 C 19,5 C 14,8 C 14,7 C 14,0 C 0,0 C 86 % 90 % 1019,1 hPa 0,0 l/m 0,0 km/h (0 Bft) O-NO 67 0 min 12,8 C 14,0 C 0,0 km/h (0 Bft)
13.08.2021 03:10 15,0 C 19,5 C 14,7 C 14,6 C 13,9 C 0,0 C 86 % 90 % 1019,1 hPa 0,0 l/m 0,0 km/h (0 Bft) O-NO 67 0 min 12,7 C 13,9 C 0,0 km/h (0 Bft)
13.08.2021 03:15 14,9 C 19,6 C 14,7 C 14,6 C 13,9 C 0,0 C 86 % 90 % 1019,0 hPa 0,0 l/m 0,0 km/h (0 Bft) O-NO 67 0 min 12,6 C 13,9 C 0,0 km/h (0 Bft)
13.08.2021 03:20 14,9 C 19,6 C 14,7 C 14,5 C 13,8 C 0,0 C 86 % 90 % 1019,0 hPa 0,0 l/m 0,0 km/h (0 Bft) O-NO 67 0 min 12,6 C 13,8 C 0,0 km/h (0 Bft)
13.08.2021 03:25 14,9 C 19,6 C 14,6 C 14,5 C 13,7 C 0,0 C 86 % 90 % 1019,0 hPa 0,0 l/m 0,0 km/h (0 Bft) O-NO 67 0 min 12,6 C 13,7 C 0,0 km/h (0 Bft)
13.08.2021 03:30 14,8 C 19,5 C 14,5 C 14,4 C 13,6 C 0,0 C 86 % 90 % 1019,0 hPa 0,0 l/m 0,0 km/h (0 Bft) O-NO 67 0 min 12,5 C 13,6 C 0,0 km/h (0 Bft)
13.08.2021 03:35 14,7 C 19,5 C 14,5 C 14,3 C 13,5 C 0,0 C 86 % 90 % 1019,1 hPa 0,0 l/m 0,0 km/h (0 Bft) O-NO 67 0 min 12,4 C 13,5 C 0,0 km/h (0 Bft)
13.08.2021 03:40 14,7 C 19,5 C 14,5 C 14,3 C 13,4 C 0,0 C 86 % 90 % 1019,1 hPa 0,0 l/m 0,0 km/h (0 Bft) O-NO 67 0 min 12,4 C 13,4 C 0,0 km/h (0 Bft)
13.08.2021 03:45 14,7 C 19,5 C 14,3 C 14,2 C 13,3 C 0,0 C 86 % 90 % 1019,1 hPa 0,0 l/m 0,0 km/h (0 Bft) O-NO 67 0 min 12,4 C 13,3 C 0,0 km/h (0 Bft)
13.08.2021 03:50 14,6 C 19,5 C 14,3 C 14,2 C 13,4 C 0,0 C 86 % 90 % 1019,1 hPa 0,0 l/m 0,0 km/h (0 Bft) O-NO 67 0 min 12,3 C 13,4 C 0,0 km/h (0 Bft)
13.08.2021 03:55 14,5 C 19,5 C 14,3 C 14,1 C 13,4 C 0,0 C 86 % 90 % 1019,2 hPa 0,0 l/m 0,0 km/h (0 Bft) O-NO 67 0 min 12,2 C 13,4 C 0,0 km/h (0 Bft)
13.08.2021 04:00 14,4 C 19,5 C 14,2 C 14,1 C 13,4 C 0,0 C 86 % 91 % 1019,2 hPa 0,0 l/m 0,0 km/h (0 Bft) O-NO 67 0 min 12,1 C 13,4 C 0,0 km/h (0 Bft)
13.08.2021 04:05 14,5 C 19,5 C 14,2 C 14,1 C 13,4 C 0,0 C 87 % 91 % 1019,2 hPa 0,0 l/m 0,0 km/h (0 Bft) O-NO 67 0 min 12,4 C 13,4 C 0,0 km/h (0 Bft)
13.08.2021 04:10 14,4 C 19,5 C 14,2 C 14,1 C 13,4 C 0,0 C 86 % 91 % 1019,2 hPa 0,0 l/m 0,0 km/h (0 Bft) O-NO 67 0 min 12,1 C 13,4 C 0,0 km/h (0 Bft)
13.08.2021 04:15 14,4 C 19,5 C 14,3 C 14,1 C 13,6 C 0,0 C 86 % 91 % 1019,2 hPa 0,0 l/m 0,0 km/h (0 Bft) O-NO 67 0 min 12,1 C 13,6 C 0,0 km/h (0 Bft)
13.08.2021 04:20 14,3 C 19,5 C 14,3 C 14,1 C 13,6 C 0,0 C 86 % 91 % 1019,2 hPa 0,0 l/m 0,0 km/h (0 Bft) O-NO 67 0 min 12,0 C 13,6 C 0,0 km/h (0 Bft)
13.08.2021 04:25 14,3 C 19,4 C 14,3 C 14,1 C 13,6 C 0,0 C 86 % 91 % 1019,2 hPa 0,0 l/m 0,0 km/h (0 Bft) O-NO 67 0 min 12,0 C 13,6 C 0,0 km/h (0 Bft)
13.08.2021 04:30 14,3 C 19,4 C 14,3 C 14,1 C 13,6 C 0,0 C 87 % 91 % 1019,2 hPa 0,0 l/m 0,0 km/h (0 Bft) O-NO 67 0 min 12,2 C 13,6 C 0,0 km/h (0 Bft)
13.08.2021 04:35 14,2 C 19,4 C 14,3 C 14,0 C 13,6 C 0,0 C 87 % 91 % 1018,9 hPa 0,0 l/m 0,0 km/h (0 Bft) O-NO 67 0 min 12,1 C 13,6 C 0,0 km/h (0 Bft)
13.08.2021 04:40 14,2 C 19,4 C 14,3 C 14,0 C 13,6 C 0,0 C 87 % 91 % 1018,9 hPa 0,0 l/m 0,0 km/h (0 Bft) O-NO 67 0 min 12,1 C 13,6 C 0,0 km/h (0 Bft)
13.08.2021 04:45 14,2 C 19,4 C 14,3 C 14,0 C 13,7 C 0,0 C 87 % 91 % 1018,9 hPa 0,0 l/m 0,0 km/h (0 Bft) O-NO 67 0 min 12,1 C 13,7 C 0,0 km/h (0 Bft)
13.08.2021 04:50 14,2 C 19,4 C 14,3 C 14,0 C 13,7 C 0,0 C 87 % 91 % 1018,9 hPa 0,0 l/m 0,0 km/h (0 Bft) O-NO 67 0 min 12,1 C 13,7 C 0,0 km/h (0 Bft)
13.08.2021 04:55 14,3 C 19,4 C 14,3 C 14,1 C 13,6 C 0,0 C 87 % 91 % 1019,1 hPa 0,0 l/m 0,0 km/h (0 Bft) O-NO 67 0 min 12,2 C 13,6 C 0,0 km/h (0 Bft)
13.08.2021 05:00 14,3 C 19,4 C 14,2 C 14,1 C 13,6 C 0,0 C 87 % 91 % 1019,1 hPa 0,0 l/m 0,0 km/h (0 Bft) O-NO 67 0 min 12,2 C 13,6 C 0,0 km/h (0 Bft)
13.08.2021 05:05 14,3 C 19,4 C 14,2 C 14,0 C 13,5 C 0,0 C 87 % 91 % 1019,1 hPa 0,0 l/m 0,0 km/h (0 Bft) O-NO 67 0 min 12,2 C 13,5 C 0,0 km/h (0 Bft)
13.08.2021 05:10 14,1 C 19,4 C 14,2 C 13,9 C 13,4 C 0,0 C 87 % 91 % 1019,1 hPa 0,0 l/m 0,0 km/h (0 Bft) O-NO 67 0 min 12,0 C 13,4 C 0,0 km/h (0 Bft)
13.08.2021 05:15 14,1 C 19,3 C 14,2 C 13,9 C 13,4 C 0,0 C 87 % 91 % 1019,2 hPa 0,0 l/m 0,0 km/h (0 Bft) O-NO 67 0 min 12,0 C 13,4 C 0,0 km/h (0 Bft)
13.08.2021 05:20 14,1 C 19,3 C 14,2 C 13,9 C 13,4 C 0,0 C 87 % 91 % 1019,2 hPa 0,0 l/m 0,0 km/h (0 Bft) O-NO 67 0 min 12,0 C 13,4 C 0,0 km/h (0 Bft)
13.08.2021 05:25 14,1 C 19,3 C 14,2 C 13,9 C 13,6 C 0,0 C 87 % 91 % 1019,2 hPa 0,0 l/m 0,0 km/h (0 Bft) O-NO 67 0 min 12,0 C 13,6 C 0,0 km/h (0 Bft)
13.08.2021 05:30 14,0 C 19,3 C 14,2 C 13,9 C 13,6 C 0,0 C 87 % 91 % 1019,2 hPa 0,0 l/m 0,0 km/h (0 Bft) O-NO 67 0 min 11,9 C 13,6 C 0,0 km/h (0 Bft)
13.08.2021 05:35 14,0 C 19,3 C 14,2 C 13,8 C 13,5 C 0,0 C 87 % 91 % 1019,4 hPa 0,0 l/m 0,0 km/h (0 Bft) O-NO 67 0 min 11,9 C 13,5 C 0,0 km/h (0 Bft)
13.08.2021 05:40 14,1 C 19,3 C 14,2 C 13,9 C 13,5 C 0,0 C 87 % 91 % 1019,4 hPa 0,0 l/m 0,0 km/h (0 Bft) O-NO 67 0 min 12,0 C 13,5 C 0,0 km/h (0 Bft)
13.08.2021 05:45 14,0 C 19,3 C 14,2 C 13,9 C 13,6 C 0,0 C 87 % 91 % 1019,4 hPa 0,0 l/m 0,0 km/h (0 Bft) O-NO 67 0 min 11,9 C 13,6 C 0,0 km/h (0 Bft)
13.08.2021 05:50 14,0 C 19,3 C 14,2 C 13,9 C 13,6 C 0,0 C 87 % 92 % 1019,4 hPa 0,0 l/m 0,0 km/h (0 Bft) O-NO 67 0 min 11,9 C 13,6 C 0,0 km/h (0 Bft)
13.08.2021 05:55 14,0 C 19,3 C 14,1 C 13,9 C 13,6 C 0,0 C 87 % 92 % 1019,1 hPa 0,0 l/m 0,0 km/h (0 Bft) O-NO 67 0 min 11,9 C 13,6 C 0,0 km/h (0 Bft)
13.08.2021 06:00 14,0 C 19,3 C 14,1 C 13,9 C 13,6 C 0,0 C 87 % 92 % 1019,1 hPa 0,0 l/m 0,0 km/h (0 Bft) O-NO 67 0 min 11,9 C 13,6 C 0,0 km/h (0 Bft)
13.08.2021 06:05 13,9 C 19,3 C 14,2 C 13,8 C 13,5 C 0,0 C 87 % 92 % 1019,1 hPa 0,0 l/m 0,0 km/h (0 Bft) O-NO 67 0 min 11,8 C 13,5 C 0,0 km/h (0 Bft)
13.08.2021 06:10 13,9 C 19,2 C 14,1 C 13,8 C 13,5 C 0,0 C 87 % 92 % 1019,1 hPa 0,0 l/m 0,0 km/h (0 Bft) O-NO 67 0 min 11,8 C 13,5 C 0,0 km/h (0 Bft)
13.08.2021 06:15 13,9 C 19,2 C 14,1 C 13,7 C 13,4 C 0,0 C 87 % 91 % 1019,4 hPa 0,0 l/m 0,0 km/h (0 Bft) O-NO 67 0 min 11,8 C 13,4 C 0,0 km/h (0 Bft)
13.08.2021 06:20 13,8 C 19,2 C 14,0 C 13,6 C 13,3 C 0,0 C 87 % 91 % 1019,4 hPa 0,0 l/m 0,0 km/h (0 Bft) O-NO 67 0 min 11,7 C 13,3 C 0,0 km/h (0 Bft)
13.08.2021 06:25 13,9 C 19,2 C 14,0 C 13,7 C 13,2 C 0,0 C 87 % 91 % 1019,4 hPa 0,0 l/m 0,0 km/h (0 Bft) O-NO 67 0 min 11,8 C 13,2 C 0,0 km/h (0 Bft)
13.08.2021 06:30 13,8 C 19,2 C 14,0 C 13,6 C 13,2 C 0,0 C 87 % 91 % 1019,4 hPa 0,0 l/m 0,0 km/h (0 Bft) O-NO 67 0 min 11,7 C 13,2 C 0,0 km/h (0 Bft)
13.08.2021 06:35 13,7 C 19,2 C 13,9 C 13,6 C 13,3 C 0,0 C 87 % 92 % 1019,3 hPa 0,0 l/m 0,0 km/h (0 Bft) O-NO 67 0 min 11,6 C 13,3 C 0,0 km/h (0 Bft)
13.08.2021 06:40 13,7 C 19,2 C 13,9 C 13,5 C 13,2 C 0,0 C 87 % 92 % 1019,3 hPa 0,0 l/m 0,0 km/h (0 Bft) O-NO 67 0 min 11,6 C 13,2 C 0,0 km/h (0 Bft)
13.08.2021 06:45 13,7 C 19,2 C 13,9 C 13,5 C 13,2 C 0,0 C 87 % 92 % 1019,3 hPa 0,0 l/m 0,0 km/h (0 Bft) O-NO 67 0 min 11,6 C 13,2 C 0,0 km/h (0 Bft)
13.08.2021 06:50 13,6 C 19,2 C 13,9 C 13,5 C 13,4 C 0,0 C 87 % 92 % 1019,3 hPa 0,0 l/m 0,0 km/h (0 Bft) O-NO 67 0 min 11,5 C 13,4 C 0,0 km/h (0 Bft)
13.08.2021 06:55 13,6 C 19,2 C 13,9 C 13,6 C 13,5 C 0,0 C 87 % 92 % 1019,7 hPa 0,0 l/m 0,0 km/h (0 Bft) O-NO 67 0 min 11,5 C 13,5 C 0,0 km/h (0 Bft)
13.08.2021 07:00 13,7 C 19,1 C 14,0 C 13,6 C 13,5 C 0,0 C 87 % 92 % 1019,7 hPa 0,0 l/m 0,0 km/h (0 Bft) O-NO 67 0 min 11,6 C 13,5 C 0,0 km/h (0 Bft)
13.08.2021 07:05 13,7 C 19,1 C 14,2 C 13,7 C 13,7 C 0,0 C 87 % 92 % 1019,7 hPa 0,0 l/m 0,0 km/h (0 Bft) O-NO 67 0 min 11,6 C 13,7 C 0,0 km/h (0 Bft)
13.08.2021 07:10 13,7 C 19,1 C 14,3 C 14,2 C 14,2 C 0,5 C 87 % 92 % 1019,7 hPa 0,0 l/m 0,0 km/h (0 Bft) O-NO 67 0 min 11,6 C 14,2 C 0,0 km/h (0 Bft)
13.08.2021 07:15 13,7 C 19,1 C 14,7 C 16,9 C 16,9 C 3,2 C 87 % 92 % 1019,2 hPa 0,0 l/m 0,0 km/h (0 Bft) O-NO 67 5 min 11,6 C 16,9 C 0,0 km/h (0 Bft)
13.08.2021 07:20 13,6 C 19,1 C 14,8 C 18,2 C 18,2 C 4,6 C 87 % 91 % 1019,2 hPa 0,0 l/m 0,0 km/h (0 Bft) O-NO 67 5 min 11,5 C 18,2 C 0,0 km/h (0 Bft)
13.08.2021 07:25 13,7 C 19,1 C 15,0 C 20,5 C 20,5 C 6,8 C 87 % 91 % 1019,2 hPa 0,0 l/m 0,0 km/h (0 Bft) O-NO 67 5 min 11,6 C 20,5 C 0,0 km/h (0 Bft)
13.08.2021 07:30 13,9 C 19,1 C 15,2 C 21,3 C 21,3 C 7,4 C 87 % 91 % 1019,2 hPa 0,0 l/m 0,0 km/h (0 Bft) O-NO 67 5 min 11,8 C 21,3 C 0,0 km/h (0 Bft)
13.08.2021 07:35 14,1 C 19,1 C 15,3 C 22,6 C 22,6 C 8,5 C 87 % 91 % 1019,9 hPa 0,0 l/m 0,0 km/h (0 Bft) O-NO 67 5 min 12,0 C 22,6 C 0,0 km/h (0 Bft)
13.08.2021 07:40 14,1 C 19,1 C 15,5 C 23,3 C 23,3 C 9,2 C 87 % 91 % 1019,9 hPa 0,0 l/m 0,0 km/h (0 Bft) O-NO 67 5 min 12,0 C 23,3 C 0,0 km/h (0 Bft)
13.08.2021 07:45 14,4 C 19,1 C 15,6 C 24,0 C 24,0 C 9,6 C 87 % 91 % 1019,9 hPa 0,0 l/m 0,0 km/h (0 Bft) O-NO 67 5 min 12,3 C 24,0 C 0,0 km/h (0 Bft)
13.08.2021 07:50 14,6 C 19,1 C 15,7 C 24,7 C 24,7 C 10,1 C 87 % 91 % 1019,9 hPa 0,0 l/m 0,0 km/h (0 Bft) O-NO 67 5 min 12,5 C 24,7 C 0,0 km/h (0 Bft)
13.08.2021 07:55 15,1 C 18,9 C 15,9 C 25,7 C 25,7 C 10,6 C 87 % 91 % 1019,9 hPa 0,0 l/m 0,0 km/h (0 Bft) O-NO 67 5 min 13,0 C 25,7 C 0,0 km/h (0 Bft)
13.08.2021 08:00 15,2 C 18,9 C 15,9 C 26,1 C 26,1 C 10,9 C 87 % 91 % 1019,9 hPa 0,0 l/m 0,0 km/h (0 Bft) O-NO 67 5 min 13,0 C 26,1 C 0,0 km/h (0 Bft)
13.08.2021 08:05 15,8 C 18,9 C 16,1 C 27,0 C 27,0 C 11,2 C 87 % 91 % 1019,9 hPa 0,0 l/m 0,0 km/h (0 Bft) O-NO 67 5 min 13,6 C 27,0 C 0,0 km/h (0 Bft)
13.08.2021 08:10 16,3 C 18,9 C 16,2 C 27,3 C 27,3 C 11,0 C 87 % 90 % 1019,9 hPa 0,0 l/m 0,0 km/h (0 Bft) O-NO 67 5 min 14,1 C 27,3 C 0,0 km/h (0 Bft)
13.08.2021 08:15 16,8 C 18,9 C 16,3 C 28,1 C 28,1 C 11,3 C 87 % 90 % 1019,8 hPa 0,0 l/m 0,0 km/h (0 Bft) O-NO 67 5 min 14,6 C 28,1 C 0,0 km/h (0 Bft)
13.08.2021 08:20 17,2 C 18,9 C 16,4 C 28,5 C 28,5 C 11,3 C 87 % 90 % 1019,8 hPa 0,0 l/m 0,0 km/h (0 Bft) O-NO 67 5 min 15,0 C 28,5 C 0,0 km/h (0 Bft)
13.08.2021 08:25 18,1 C 18,9 C 16,6 C 29,1 C 29,1 C 11,0 C 87 % 90 % 1019,8 hPa 0,0 l/m 0,0 km/h (0 Bft) O-NO 67 5 min 15,9 C 29,1 C 0,0 km/h (0 Bft)
13.08.2021 08:30 18,5 C 18,9 C 16,7 C 29,4 C 29,4 C 10,9 C 87 % 90 % 1019,8 hPa 0,0 l/m 0,0 km/h (0 Bft) O-NO 67 5 min 16,3 C 29,4 C 0,0 km/h (0 Bft)
13.08.2021 08:35 19,3 C 18,8 C 16,9 C 29,8 C 29,8 C 10,5 C 87 % 90 % 1019,6 hPa 0,0 l/m 0,0 km/h (0 Bft) O-NO 67 5 min 17,1 C 29,8 C 0,0 km/h (0 Bft)
13.08.2021 08:40 19,7 C 18,8 C 17,0 C 30,3 C 30,3 C 10,6 C 86 % 90 % 1019,6 hPa 0,0 l/m 0,0 km/h (0 Bft) O-NO 67 5 min 17,3 C 30,3 C 0,0 km/h (0 Bft)
13.08.2021 08:45 20,3 C 18,8 C 17,1 C 30,7 C 30,7 C 10,4 C 85 % 90 % 1019,6 hPa 0,0 l/m 0,0 km/h (0 Bft) O-NO 67 5 min 17,7 C 30,7 C 0,0 km/h (0 Bft)
13.08.2021 08:50 20,7 C 18,8 C 17,4 C 30,9 C 30,9 C 10,2 C 84 % 89 % 1019,6 hPa 0,0 l/m 0,0 km/h (0 Bft) O-NO 67 5 min 17,9 C 30,9 C 0,0 km/h (0 Bft)
13.08.2021 08:55 21,2 C 18,6 C 17,7 C 31,0 C 31,0 C 9,8 C 82 % 90 % 1019,4 hPa 0,0 l/m 0,0 km/h (0 Bft) O-NO 67 5 min 18,0 C 31,0 C 0,0 km/h (0 Bft)
13.08.2021 09:00 21,6 C 18,6 C 17,8 C 31,2 C 31,2 C 9,6 C 80 % 89 % 1019,4 hPa 0,0 l/m 0,0 km/h (0 Bft) O-NO 67 5 min 18,0 C 31,2 C 0,0 km/h (0 Bft)
13.08.2021 09:05 22,3 C 18,6 C 18,0 C 31,3 C 31,3 C 9,0 C 79 % 89 % 1019,4 hPa 0,0 l/m 0,0 km/h (0 Bft) O-NO 67 5 min 18,5 C 31,3 C 0,0 km/h (0 Bft)
13.08.2021 09:10 22,8 C 18,7 C 18,2 C 31,5 C 31,5 C 8,7 C 77 % 89 % 1019,4 hPa 0,0 l/m 0,0 km/h (0 Bft) O-NO 67 5 min 18,5 C 31,5 C 0,0 km/h (0 Bft)
13.08.2021 09:15 23,2 C 18,6 C 18,5 C 30,6 C 30,6 C 7,4 C 75 % 88 % 1019,5 hPa 0,0 l/m 0,0 km/h (0 Bft) O-NO 67 5 min 18,5 C 30,6 C 0,0 km/h (0 Bft)
13.08.2021 09:20 23,6 C 18,6 C 18,7 C 28,8 C 28,8 C 5,2 C 75 % 88 % 1019,5 hPa 0,0 l/m 0,0 km/h (0 Bft) O-NO 67 5 min 18,9 C 28,8 C 0,0 km/h (0 Bft)
13.08.2021 09:25 23,7 C 18,7 C 18,9 C 26,7 C 26,7 C 3,0 C 73 % 88 % 1019,5 hPa 0,0 l/m 0,0 km/h (0 Bft) O-NO 67 0 min 18,6 C 26,7 C 0,0 km/h (0 Bft)
13.08.2021 09:30 23,7 C 18,7 C 19,0 C 25,9 C 25,9 C 2,2 C 72 % 88 % 1019,5 hPa 0,0 l/m 0,0 km/h (0 Bft) O-NO 67 0 min 18,3 C 25,9 C 0,0 km/h (0 Bft)
13.08.2021 09:35 23,9 C 18,7 C 19,2 C 25,9 C 25,9 C 2,0 C 72 % 88 % 1019,6 hPa 0,0 l/m 0,0 km/h (0 Bft) O-NO 67 0 min 18,5 C 25,9 C 1,8 km/h (1 Bft)
13.08.2021 09:40 23,9 C 18,7 C 19,3 C 25,7 C 25,7 C 1,8 C 72 % 87 % 1019,6 hPa 0,0 l/m 0,0 km/h (0 Bft) O-NO 67 0 min 18,5 C 25,7 C 0,0 km/h (0 Bft)
13.08.2021 09:45 23,8 C 18,7 C 19,5 C 25,1 C 25,1 C 1,3 C 71 % 87 % 1019,6 hPa 0,0 l/m 0,0 km/h (0 Bft) O-NO 67 0 min 18,2 C 25,1 C 0,0 km/h (0 Bft)
13.08.2021 09:50 23,9 C 18,7 C 19,7 C 25,0 C 25,0 C 1,1 C 70 % 86 % 1019,6 hPa 0,0 l/m 0,0 km/h (0 Bft) O-NO 67 0 min 18,1 C 25,0 C 0,0 km/h (0 Bft)
13.08.2021 09:55 23,9 C 18,7 C 19,9 C 24,9 C 24,9 C 1,0 C 70 % 85 % 1019,1 hPa 0,0 l/m 0,0 km/h (0 Bft) O-NO 67 0 min 18,1 C 24,9 C 0,0 km/h (0 Bft)
13.08.2021 10:00 23,9 C 18,7 C 20,1 C 24,9 C 24,9 C 1,0 C 70 % 85 % 1019,1 hPa 0,0 l/m 0,0 km/h (0 Bft) O-NO 67 0 min 18,1 C 24,9 C 0,0 km/h (0 Bft)
13.08.2021 10:05 23,9 C 18,7 C 20,3 C 25,1 C 25,1 C 1,2 C 70 % 84 % 1019,1 hPa 0,0 l/m 0,0 km/h (0 Bft) O-NO 67 0 min 18,1 C 25,1 C 0,0 km/h (0 Bft)
13.08.2021 10:10 24,0 C 18,6 C 20,5 C 26,0 C 26,0 C 2,0 C 70 % 84 % 1019,1 hPa 0,0 l/m 0,0 km/h (0 Bft) O-NO 67 0 min 18,2 C 26,0 C 0,0 km/h (0 Bft)
13.08.2021 10:15 23,9 C 18,6 C 20,6 C 25,9 C 25,9 C 2,0 C 69 % 83 % 1019,4 hPa 0,0 l/m 0,0 km/h (0 Bft) O-NO 67 0 min 17,9 C 25,9 C 0,0 km/h (0 Bft)
13.08.2021 10:20 23,9 C 18,6 C 20,7 C 25,7 C 25,7 C 1,8 C 69 % 82 % 1019,4 hPa 0,0 l/m 0,0 km/h (0 Bft) O-NO 67 0 min 17,9 C 25,7 C 0,0 km/h (0 Bft)
13.08.2021 10:25 23,9 C 18,6 C 20,8 C 25,7 C 25,7 C 1,8 C 68 % 82 % 1019,4 hPa 0,0 l/m 0,0 km/h (0 Bft) O-NO 67 0 min 17,6 C 25,7 C 0,0 km/h (0 Bft)
13.08.2021 10:30 24,0 C 18,6 C 21,0 C 27,2 C 27,2 C 3,2 C 69 % 82 % 1019,4 hPa 0,0 l/m 0,0 km/h (0 Bft) O-NO 67 0 min 18,0 C 27,2 C 0,0 km/h (0 Bft)
13.08.2021 10:35 24,0 C 18,6 C 21,2 C 28,4 C 28,4 C 4,4 C 69 % 81 % 1019,4 hPa 0,0 l/m 0,0 km/h (0 Bft) O-NO 67 5 min 18,0 C 28,4 C 0,0 km/h (0 Bft)
13.08.2021 10:40 24,1 C 18,7 C 21,3 C 27,8 C 27,8 C 3,7 C 69 % 81 % 1019,4 hPa 0,0 l/m 0,2 km/h (0 Bft) O-NO 67 5 min 18,0 C 27,8 C 2,1 km/h (1 Bft)
13.08.2021 10:45 24,1 C 18,7 C 21,5 C 26,9 C 26,9 C 2,8 C 68 % 81 % 1019,4 hPa 0,0 l/m 0,2 km/h (0 Bft) O-NO 67 0 min 17,8 C 26,9 C 0,0 km/h (0 Bft)
13.08.2021 10:50 24,3 C 18,7 C 21,6 C 26,6 C 26,6 C 2,3 C 68 % 80 % 1019,4 hPa 0,0 l/m 0,2 km/h (0 Bft) O-NO 67 0 min 18,0 C 26,6 C 2,1 km/h (1 Bft)
13.08.2021 10:55 24,3 C 18,7 C 21,7 C 26,4 C 26,4 C 2,1 C 67 % 78 % 1019,1 hPa 0,0 l/m 0,0 km/h (0 Bft) O-NO 67 0 min 17,8 C 26,4 C 0,0 km/h (0 Bft)
13.08.2021 11:00 24,5 C 18,7 C 21,9 C 26,2 C 26,2 C 1,7 C 66 % 78 % 1019,1 hPa 0,0 l/m 0,3 km/h (0 Bft) S-SW 202 0 min 17,7 C 26,2 C 3,5 km/h (1 Bft)
13.08.2021 11:05 24,5 C 18,6 C 22,1 C 26,4 C 26,4 C 1,9 C 66 % 77 % 1019,1 hPa 0,0 l/m 0,3 km/h (0 Bft) S-SW 202 0 min 17,7 C 26,4 C 0,0 km/h (0 Bft)
13.08.2021 11:10 24,7 C 18,6 C 22,2 C 26,5 C 26,5 C 1,8 C 65 % 76 % 1019,1 hPa 0,0 l/m 0,2 km/h (0 Bft) NW 315 0 min 17,7 C 26,5 C 3,9 km/h (1 Bft)
13.08.2021 11:15 24,7 C 18,6 C 22,4 C 26,6 C 26,6 C 1,9 C 64 % 75 % 1019,4 hPa 0,0 l/m 0,3 km/h (0 Bft) W-SW 247 0 min 17,4 C 26,6 C 1,6 km/h (1 Bft)
13.08.2021 11:20 24,8 C 18,6 C 22,5 C 26,6 C 26,6 C 1,8 C 63 % 74 % 1019,4 hPa 0,0 l/m 0,5 km/h (0 Bft) W-SW 247 0 min 17,3 C 26,6 C 0,0 km/h (0 Bft)
13.08.2021 11:25 25,1 C 18,7 C 22,8 C 26,6 C 26,6 C 1,5 C 62 % 74 % 1019,4 hPa 0,0 l/m 0,6 km/h (0 Bft) SW 225 0 min 17,3 C 26,6 C 0,0 km/h (0 Bft)
13.08.2021 11:30 25,1 C 18,7 C 22,8 C 26,7 C 26,7 C 1,6 C 62 % 73 % 1019,4 hPa 0,0 l/m 0,3 km/h (0 Bft) SW 225 0 min 17,3 C 26,7 C 4,0 km/h (1 Bft)
13.08.2021 11:35 25,2 C 18,7 C 23,1 C 26,9 C 26,9 C 1,7 C 61 % 71 % 1019,6 hPa 0,0 l/m 0,8 km/h (0 Bft) N-NO 22 0 min 17,1 C 26,9 C 1,9 km/h (1 Bft)
13.08.2021 11:40 25,5 C 18,7 C 23,2 C 27,0 C 27,0 C 1,5 C 60 % 71 % 1019,6 hPa 0,0 l/m 0,6 km/h (0 Bft) S-SW 202 0 min 17,2 C 27,0 C 4,5 km/h (1 Bft)
13.08.2021 11:45 25,7 C 18,7 C 23,5 C 27,4 C 27,4 C 1,7 C 59 % 70 % 1019,6 hPa 0,0 l/m 0,3 km/h (0 Bft) S 180 0 min 17,1 C 27,4 C 0,0 km/h (0 Bft)
13.08.2021 11:50 25,7 C 18,7 C 23,7 C 27,5 C 27,5 C 1,8 C 58 % 67 % 1019,6 hPa 0,0 l/m 0,8 km/h (0 Bft) W 270 0 min 16,8 C 27,5 C 3,1 km/h (1 Bft)
13.08.2021 11:55 26,0 C 18,8 C 23,9 C 27,7 C 27,7 C 1,7 C 58 % 68 % 1018,9 hPa 0,0 l/m 0,8 km/h (0 Bft) W-SW 247 0 min 17,1 C 27,7 C 0,0 km/h (0 Bft)
13.08.2021 12:00 26,0 C 18,8 C 23,9 C 27,9 C 27,9 C 1,9 C 57 % 68 % 1018,9 hPa 0,0 l/m 0,5 km/h (0 Bft) SW 225 0 min 16,8 C 27,9 C 7,1 km/h (2 Bft)
13.08.2021 12:05 26,3 C 18,8 C 23,9 C 28,3 C 28,3 C 2,0 C 56 % 68 % 1018,9 hPa 0,0 l/m 0,6 km/h (0 Bft) W-SW 247 0 min 16,8 C 28,3 C 2,1 km/h (1 Bft)
13.08.2021 12:10 26,5 C 18,8 C 24,1 C 28,5 C 28,5 C 2,0 C 55 % 66 % 1018,9 hPa 0,0 l/m 0,8 km/h (0 Bft) W-SW 247 0 min 16,7 C 28,5 C 2,7 km/h (1 Bft)
13.08.2021 12:15 26,7 C 18,8 C 24,3 C 28,7 C 28,7 C 2,0 C 54 % 64 % 1019,2 hPa 0,0 l/m 0,6 km/h (0 Bft) N-NW 337 0 min 16,6 C 28,7 C 0,0 km/h (0 Bft)
13.08.2021 12:20 26,8 C 18,8 C 24,4 C 29,1 C 29,1 C 2,3 C 54 % 66 % 1019,2 hPa 0,0 l/m 0,5 km/h (0 Bft) SW 225 0 min 16,7 C 29,1 C 0,0 km/h (0 Bft)
13.08.2021 12:25 27,3 C 18,8 C 24,5 C 29,5 C 29,5 C 2,2 C 53 % 64 % 1019,2 hPa 0,0 l/m 1,1 km/h (1 Bft) NW 315 0 min 16,9 C 29,5 C 2,3 km/h (1 Bft)
13.08.2021 12:30 27,4 C 18,9 C 24,6 C 30,3 C 30,3 C 2,9 C 53 % 64 % 1019,2 hPa 0,0 l/m 1,6 km/h (1 Bft) S-SW 202 0 min 17,0 C 30,3 C 0,0 km/h (0 Bft)
13.08.2021 12:35 27,9 C 18,9 C 24,7 C 31,9 C 31,9 C 4,0 C 54 % 65 % 1019,6 hPa 0,0 l/m 1,3 km/h (1 Bft) NO 45 5 min 17,7 C 31,9 C 1,9 km/h (1 Bft)
13.08.2021 12:40 28,0 C 18,8 C 24,9 C 32,9 C 32,9 C 4,9 C 52 % 64 % 1019,6 hPa 0,0 l/m 0,8 km/h (0 Bft) S-SW 202 5 min 17,2 C 32,9 C 0,0 km/h (0 Bft)
13.08.2021 12:45 28,6 C 18,8 C 25,0 C 33,7 C 33,7 C 5,1 C 51 % 63 % 1019,6 hPa 0,0 l/m 0,6 km/h (0 Bft) S-SW 202 5 min 17,4 C 33,7 C 1,6 km/h (1 Bft)
13.08.2021 12:50 28,8 C 18,8 C 25,2 C 33,9 C 33,9 C 5,1 C 50 % 61 % 1019,6 hPa 0,0 l/m 0,8 km/h (0 Bft) W-SW 247 5 min 17,3 C 33,9 C 0,0 km/h (0 Bft)
13.08.2021 12:55 28,8 C 18,8 C 25,6 C 34,4 C 34,4 C 5,6 C 50 % 60 % 1019,2 hPa 0,0 l/m 1,0 km/h (0 Bft) S 180 5 min 17,3 C 34,4 C 1,8 km/h (1 Bft)
13.08.2021 13:00 28,8 C 18,8 C 25,7 C 34,6 C 34,6 C 5,8 C 51 % 61 % 1019,2 hPa 0,0 l/m 1,3 km/h (1 Bft) S 180 5 min 17,6 C 34,6 C 0,0 km/h (0 Bft)
13.08.2021 13:05 29,3 C 18,9 C 25,5 C 35,1 C 35,1 C 5,8 C 50 % 60 % 1019,2 hPa 0,0 l/m 1,1 km/h (1 Bft) N-NW 337 5 min 17,8 C 35,1 C 3,5 km/h (1 Bft)
13.08.2021 13:10 29,3 C 18,9 C 25,5 C 34,5 C 34,5 C 5,2 C 50 % 62 % 1019,2 hPa 0,0 l/m 0,5 km/h (0 Bft) S 180 5 min 17,8 C 34,5 C 0,0 km/h (0 Bft)
13.08.2021 13:15 29,3 C 18,9 C 25,5 C 33,4 C 33,4 C 4,1 C 50 % 62 % 1019,1 hPa 0,0 l/m 0,6 km/h (0 Bft) W-SW 247 5 min 17,8 C 33,4 C 1,6 km/h (1 Bft)
13.08.2021 13:20 29,2 C 18,9 C 25,6 C 33,2 C 33,2 C 4,0 C 50 % 62 % 1019,1 hPa 0,0 l/m 0,6 km/h (0 Bft) W 270 5 min 17,7 C 33,2 C 2,7 km/h (1 Bft)
13.08.2021 13:25 29,5 C 18,9 C 26,0 C 34,1 C 34,1 C 4,6 C 50 % 62 % 1019,1 hPa 0,0 l/m 0,8 km/h (0 Bft) S 180 5 min 18,0 C 34,1 C 2,3 km/h (1 Bft)
13.08.2021 13:30 29,6 C 19,0 C 26,5 C 34,6 C 34,6 C 5,0 C 49 % 62 % 1019,1 hPa 0,0 l/m 1,0 km/h (0 Bft) NW 315 5 min 17,7 C 34,6 C 1,6 km/h (1 Bft)
13.08.2021 13:35 29,9 C 19,0 C 26,6 C 35,1 C 35,1 C 5,2 C 48 % 60 % 1019,3 hPa 0,0 l/m 1,1 km/h (1 Bft) SW 225 5 min 17,7 C 35,1 C 3,1 km/h (1 Bft)
13.08.2021 13:40 30,2 C 19,0 C 26,5 C 35,4 C 35,4 C 5,2 C 48 % 60 % 1019,3 hPa 0,0 l/m 1,1 km/h (1 Bft) SW 225 5 min 17,9 C 35,4 C 2,7 km/h (1 Bft)
13.08.2021 13:45 30,3 C 19,0 C 26,5 C 35,5 C 35,5 C 5,2 C 47 % 59 % 1019,3 hPa 0,0 l/m 1,9 km/h (1 Bft) SW 225 5 min 17,7 C 35,5 C 2,6 km/h (1 Bft)
13.08.2021 13:50 30,2 C 19,0 C 26,7 C 35,4 C 35,4 C 5,2 C 47 % 58 % 1019,3 hPa 0,0 l/m 1,8 km/h (1 Bft) S 180 5 min 17,6 C 35,4 C 2,7 km/h (1 Bft)
13.08.2021 13:55 30,3 C 19,1 C 26,7 C 35,4 C 35,4 C 5,1 C 47 % 58 % 1019,1 hPa 0,0 l/m 1,8 km/h (1 Bft) SW 225 5 min 17,7 C 35,4 C 5,6 km/h (1 Bft)
13.08.2021 14:00 30,5 C 19,1 C 27,0 C 35,5 C 35,5 C 5,0 C 47 % 60 % 1019,1 hPa 0,0 l/m 1,4 km/h (1 Bft) W-NW 292 5 min 17,9 C 35,5 C 1,8 km/h (1 Bft)
13.08.2021 14:05 30,7 C 19,1 C 27,2 C 35,7 C 35,7 C 5,0 C 47 % 57 % 1019,1 hPa 0,0 l/m 1,1 km/h (1 Bft) W-SW 247 5 min 18,1 C 35,7 C 2,9 km/h (1 Bft)
13.08.2021 14:10 30,6 C 19,1 C 27,2 C 35,8 C 35,8 C 5,2 C 46 % 58 % 1019,1 hPa 0,0 l/m 0,5 km/h (0 Bft) SW 225 5 min 17,6 C 35,8 C 0,0 km/h (0 Bft)
13.08.2021 14:15 30,7 C 19,1 C 27,1 C 36,2 C 36,2 C 5,5 C 45 % 59 % 1018,9 hPa 0,0 l/m 0,2 km/h (0 Bft) SW 225 5 min 17,4 C 36,2 C 0,0 km/h (0 Bft)
13.08.2021 14:20 30,5 C 19,2 C 27,1 C 36,2 C 36,2 C 5,7 C 46 % 58 % 1018,9 hPa 0,0 l/m 0,3 km/h (0 Bft) W-SW 247 5 min 17,5 C 36,2 C 0,0 km/h (0 Bft)
13.08.2021 14:25 30,6 C 19,2 C 27,2 C 36,3 C 36,3 C 5,7 C 46 % 57 % 1018,9 hPa 0,0 l/m 0,6 km/h (0 Bft) O-SO 112 5 min 17,6 C 36,3 C 0,0 km/h (0 Bft)
13.08.2021 14:30 30,7 C 19,2 C 27,3 C 36,3 C 36,3 C 5,6 C 46 % 56 % 1018,9 hPa 0,0 l/m 0,3 km/h (0 Bft) W-NW 292 5 min 17,7 C 36,3 C 0,0 km/h (0 Bft)
13.08.2021 14:35 30,9 C 19,2 C 27,3 C 36,7 C 36,7 C 5,8 C 46 % 57 % 1018,9 hPa 0,0 l/m 0,3 km/h (0 Bft) S 180 5 min 17,9 C 36,7 C 0,0 km/h (0 Bft)
13.08.2021 14:40 30,8 C 19,3 C 27,3 C 36,7 C 36,7 C 5,9 C 45 % 57 % 1018,9 hPa 0,0 l/m 0,3 km/h (0 Bft) SW 225 5 min 17,5 C 36,7 C 0,0 km/h (0 Bft)
13.08.2021 14:45 30,7 C 19,3 C 27,3 C 36,4 C 36,4 C 5,7 C 45 % 57 % 1018,9 hPa 0,0 l/m 0,8 km/h (0 Bft) W-SW 247 5 min 17,4 C 36,4 C 3,5 km/h (1 Bft)
13.08.2021 14:50 30,7 C 19,3 C 27,4 C 36,1 C 36,1 C 5,4 C 45 % 56 % 1018,9 hPa 0,0 l/m 1,0 km/h (0 Bft) S-SO 157 5 min 17,4 C 36,1 C 1,6 km/h (1 Bft)
13.08.2021 14:55 30,4 C 19,3 C 27,5 C 35,8 C 35,8 C 5,4 C 45 % 56 % 1019,0 hPa 0,0 l/m 1,4 km/h (1 Bft) SW 225 5 min 17,1 C 35,8 C 2,3 km/h (1 Bft)
13.08.2021 15:00 30,3 C 19,4 C 27,4 C 35,5 C 35,5 C 5,2 C 45 % 56 % 1019,0 hPa 0,0 l/m 1,0 km/h (0 Bft) O-NO 67 5 min 17,0 C 35,5 C 2,1 km/h (1 Bft)
13.08.2021 15:05 30,1 C 19,4 C 27,4 C 35,2 C 35,2 C 5,1 C 45 % 55 % 1019,0 hPa 0,0 l/m 1,1 km/h (1 Bft) O 90 5 min 16,8 C 35,2 C 2,4 km/h (1 Bft)
13.08.2021 15:10 30,1 C 19,4 C 27,5 C 35,3 C 35,3 C 5,2 C 45 % 53 % 1019,0 hPa 0,0 l/m 1,1 km/h (1 Bft) NW 315 5 min 16,8 C 35,3 C 1,8 km/h (1 Bft)
13.08.2021 15:15 30,3 C 19,4 C 27,5 C 35,9 C 35,9 C 5,6 C 46 % 55 % 1019,1 hPa 0,0 l/m 0,6 km/h (0 Bft) W 270 5 min 17,4 C 35,9 C 0,0 km/h (0 Bft)
13.08.2021 15:20 30,3 C 19,5 C 27,5 C 36,0 C 36,0 C 5,7 C 45 % 55 % 1019,1 hPa 0,0 l/m 0,6 km/h (0 Bft) W-SW 247 5 min 17,0 C 36,0 C 4,2 km/h (1 Bft)
13.08.2021 15:25 30,3 C 19,5 C 27,6 C 35,9 C 35,9 C 5,6 C 46 % 56 % 1019,1 hPa 0,0 l/m 1,0 km/h (0 Bft) SW 225 5 min 17,4 C 35,9 C 0,0 km/h (0 Bft)
13.08.2021 15:30 30,2 C 19,5 C 27,7 C 35,9 C 35,9 C 5,7 C 45 % 55 % 1019,1 hPa 0,0 l/m 1,8 km/h (1 Bft) W-SW 247 5 min 16,9 C 35,9 C 2,6 km/h (1 Bft)
13.08.2021 15:35 30,1 C 19,5 C 27,9 C 35,5 C 35,5 C 5,4 C 45 % 55 % 1018,8 hPa 0,0 l/m 2,4 km/h (1 Bft) S-SW 202 5 min 16,8 C 35,5 C 0,0 km/h (0 Bft)
13.08.2021 15:40 30,0 C 19,6 C 27,6 C 34,7 C 34,7 C 4,7 C 46 % 54 % 1018,8 hPa 0,0 l/m 2,1 km/h (1 Bft) S 180 5 min 17,1 C 34,7 C 9,5 km/h (2 Bft)
13.08.2021 15:45 29,9 C 19,6 C 27,6 C 34,3 C 34,3 C 4,4 C 46 % 56 % 1018,8 hPa 0,0 l/m 1,1 km/h (1 Bft) W-SW 247 5 min 17,0 C 34,3 C 4,2 km/h (1 Bft)
13.08.2021 15:50 29,9 C 19,6 C 27,7 C 34,7 C 34,7 C 4,8 C 46 % 54 % 1018,8 hPa 0,0 l/m 1,6 km/h (1 Bft) S 180 5 min 17,0 C 34,7 C 3,1 km/h (1 Bft)
13.08.2021 15:55 29,9 C 19,6 C 27,8 C 34,3 C 34,3 C 4,4 C 46 % 54 % 1018,8 hPa 0,0 l/m 2,1 km/h (1 Bft) SW 225 5 min 17,0 C 34,3 C 1,6 km/h (1 Bft)
13.08.2021 16:00 29,9 C 19,6 C 27,6 C 34,3 C 34,3 C 4,4 C 46 % 54 % 1018,8 hPa 0,0 l/m 1,9 km/h (1 Bft) SW 225 5 min 17,0 C 34,3 C 1,6 km/h (1 Bft)
13.08.2021 16:05 29,7 C 19,7 C 27,5 C 33,5 C 33,5 C 3,8 C 46 % 54 % 1018,8 hPa 0,0 l/m 1,1 km/h (1 Bft) SW 225 5 min 16,8 C 33,5 C 0,0 km/h (0 Bft)
13.08.2021 16:10 29,6 C 19,7 C 27,3 C 33,0 C 33,0 C 3,4 C 46 % 55 % 1018,8 hPa 0,0 l/m 0,6 km/h (0 Bft) SW 225 5 min 16,7 C 33,0 C 1,8 km/h (1 Bft)
13.08.2021 16:15 29,6 C 19,7 C 27,2 C 32,4 C 32,4 C 2,8 C 47 % 56 % 1018,8 hPa 0,0 l/m 0,8 km/h (0 Bft) SW 225 0 min 17,1 C 32,4 C 0,0 km/h (0 Bft)
13.08.2021 16:20 29,6 C 19,7 C 27,3 C 32,3 C 32,3 C 2,7 C 48 % 56 % 1018,8 hPa 0,0 l/m 1,1 km/h (1 Bft) NW 315 0 min 17,4 C 32,3 C 2,6 km/h (1 Bft)
13.08.2021 16:25 29,7 C 19,8 C 27,5 C 33,1 C 33,1 C 3,4 C 48 % 53 % 1018,8 hPa 0,0 l/m 1,1 km/h (1 Bft) S-SO 157 5 min 17,5 C 33,1 C 2,3 km/h (1 Bft)
13.08.2021 16:30 29,6 C 19,8 C 27,5 C 33,3 C 33,3 C 3,7 C 48 % 55 % 1018,8 hPa 0,0 l/m 1,1 km/h (1 Bft) SW 225 5 min 17,4 C 33,3 C 0,0 km/h (0 Bft)
13.08.2021 16:35 29,6 C 19,8 C 27,2 C 32,8 C 32,8 C 3,2 C 48 % 56 % 1018,7 hPa 0,0 l/m 0,5 km/h (0 Bft) SW 225 0 min 17,4 C 32,8 C 2,1 km/h (1 Bft)
13.08.2021 16:40 29,5 C 19,8 C 27,2 C 32,8 C 32,8 C 3,3 C 47 % 57 % 1018,7 hPa 0,0 l/m 0,3 km/h (0 Bft) SW 225 5 min 17,0 C 32,8 C 0,0 km/h (0 Bft)
13.08.2021 16:45 29,5 C 19,8 C 27,3 C 33,0 C 33,0 C 3,5 C 48 % 57 % 1018,7 hPa 0,0 l/m 0,3 km/h (0 Bft) SW 225 5 min 17,3 C 33,0 C 0,0 km/h (0 Bft)
13.08.2021 16:50 29,7 C 19,9 C 27,4 C 33,3 C 33,3 C 3,6 C 48 % 58 % 1018,7 hPa 0,0 l/m 0,2 km/h (0 Bft) W-SW 247 5 min 17,5 C 33,3 C 4,2 km/h (1 Bft)
13.08.2021 16:55 29,7 C 19,9 C 27,3 C 33,1 C 33,1 C 3,4 C 48 % 57 % 1018,4 hPa 0,0 l/m 0,3 km/h (0 Bft) S 180 5 min 17,5 C 33,1 C 0,0 km/h (0 Bft)
13.08.2021 17:00 29,8 C 19,9 C 27,3 C 32,7 C 32,7 C 2,9 C 48 % 57 % 1018,4 hPa 0,0 l/m 0,5 km/h (0 Bft) S-SW 202 0 min 17,6 C 32,7 C 0,0 km/h (0 Bft)
13.08.2021 17:05 29,7 C 19,9 C 27,4 C 32,4 C 32,4 C 2,7 C 47 % 56 % 1018,4 hPa 0,0 l/m 0,5 km/h (0 Bft) W-SW 247 0 min 17,2 C 32,4 C 2,3 km/h (1 Bft)
13.08.2021 17:10 29,7 C 19,9 C 27,5 C 32,1 C 32,1 C 2,4 C 48 % 55 % 1018,4 hPa 0,0 l/m 0,8 km/h (0 Bft) W-SW 247 0 min 17,5 C 32,1 C 0,0 km/h (0 Bft)
13.08.2021 17:15 29,7 C 19,9 C 27,3 C 31,8 C 31,8 C 2,1 C 48 % 57 % 1018,4 hPa 0,0 l/m 0,6 km/h (0 Bft) SW 225 0 min 17,5 C 31,8 C 0,0 km/h (0 Bft)
13.08.2021 17:20 29,7 C 19,9 C 27,3 C 31,6 C 31,6 C 1,9 C 48 % 58 % 1018,4 hPa 0,0 l/m 0,2 km/h (0 Bft) SW 225 0 min 17,5 C 31,6 C 0,0 km/h (0 Bft)
13.08.2021 17:25 29,9 C 19,9 C 27,3 C 31,5 C 31,5 C 1,6 C 48 % 56 % 1018,4 hPa 0,0 l/m 0,3 km/h (0 Bft) W-SW 247 0 min 17,7 C 31,5 C 0,0 km/h (0 Bft)
13.08.2021 17:30 29,8 C 20,0 C 27,5 C 31,4 C 31,4 C 1,6 C 47 % 57 % 1018,4 hPa 0,0 l/m 0,5 km/h (0 Bft) SW 225 0 min 17,2 C 31,4 C 1,9 km/h (1 Bft)
13.08.2021 17:35 29,8 C 20,0 C 27,3 C 31,4 C 31,4 C 1,6 C 48 % 57 % 1018,2 hPa 0,0 l/m 0,5 km/h (0 Bft) SW 225 0 min 17,6 C 31,4 C 0,0 km/h (0 Bft)
13.08.2021 17:40 29,8 C 20,1 C 27,1 C 31,3 C 31,3 C 1,5 C 48 % 57 % 1018,2 hPa 0,0 l/m 0,5 km/h (0 Bft) O 90 0 min 17,6 C 31,3 C 2,3 km/h (1 Bft)
13.08.2021 17:45 29,6 C 20,1 C 26,9 C 30,7 C 30,7 C 1,1 C 48 % 56 % 1018,2 hPa 0,0 l/m 0,3 km/h (0 Bft) SW 225 0 min 17,4 C 30,7 C 0,0 km/h (0 Bft)
13.08.2021 17:50 29,5 C 20,1 C 26,9 C 30,6 C 30,6 C 1,1 C 48 % 56 % 1018,2 hPa 0,0 l/m 0,3 km/h (0 Bft) N-NW 337 0 min 17,3 C 30,6 C 3,5 km/h (1 Bft)
13.08.2021 17:55 29,4 C 20,1 C 27,0 C 30,7 C 30,7 C 1,3 C 48 % 57 % 1018,2 hPa 0,0 l/m 0,6 km/h (0 Bft) W-SW 247 0 min 17,2 C 30,7 C 0,0 km/h (0 Bft)
13.08.2021 18:00 29,4 C 20,1 C 26,8 C 30,7 C 30,7 C 1,3 C 49 % 57 % 1018,2 hPa 0,0 l/m 0,5 km/h (0 Bft) W-SW 247 0 min 17,5 C 30,7 C 1,9 km/h (1 Bft)
13.08.2021 18:05 29,3 C 20,1 C 26,8 C 30,6 C 30,6 C 1,3 C 49 % 57 % 1018,2 hPa 0,0 l/m 0,0 km/h (0 Bft) W-SW 247 0 min 17,5 C 30,6 C 0,0 km/h (0 Bft)
13.08.2021 18:10 29,3 C 20,2 C 26,7 C 30,4 C 30,4 C 1,1 C 49 % 58 % 1018,2 hPa 0,0 l/m 0,5 km/h (0 Bft) S 180 0 min 17,5 C 30,4 C 0,0 km/h (0 Bft)
13.08.2021 18:15 29,0 C 20,2 C 26,5 C 29,8 C 29,8 C 0,8 C 49 % 58 % 1018,4 hPa 0,0 l/m 0,6 km/h (0 Bft) W-SW 247 0 min 17,2 C 29,8 C 1,8 km/h (1 Bft)
13.08.2021 18:20 28,9 C 20,2 C 26,3 C 29,5 C 29,5 C 0,6 C 49 % 58 % 1018,4 hPa 0,0 l/m 0,3 km/h (0 Bft) W-SW 247 0 min 17,1 C 29,5 C 0,0 km/h (0 Bft)
13.08.2021 18:25 28,8 C 20,2 C 26,5 C 29,7 C 29,7 C 0,9 C 50 % 59 % 1018,4 hPa 0,0 l/m 0,2 km/h (0 Bft) W 270 0 min 17,3 C 29,7 C 2,6 km/h (1 Bft)
13.08.2021 18:30 29,1 C 20,2 C 26,7 C 30,0 C 30,0 C 0,9 C 51 % 60 % 1018,4 hPa 0,0 l/m 0,0 km/h (0 Bft) W-SW 247 0 min 17,9 C 30,0 C 0,0 km/h (0 Bft)
13.08.2021 18:35 29,3 C 20,2 C 26,6 C 30,2 C 30,2 C 0,9 C 51 % 60 % 1018,1 hPa 0,0 l/m 0,3 km/h (0 Bft) W-SW 247 0 min 18,1 C 30,2 C 0,0 km/h (0 Bft)
13.08.2021 18:40 29,2 C 20,3 C 26,4 C 29,8 C 29,8 C 0,6 C 50 % 59 % 1018,1 hPa 0,0 l/m 0,5 km/h (0 Bft) S-SO 157 0 min 17,7 C 29,8 C 1,9 km/h (1 Bft)
13.08.2021 18:45 29,1 C 20,3 C 26,2 C 29,1 C 29,1 C 0,0 C 51 % 59 % 1018,1 hPa 0,0 l/m 0,3 km/h (0 Bft) S-SO 157 0 min 17,9 C 29,1 C 0,0 km/h (0 Bft)
13.08.2021 18:50 28,9 C 20,3 C 26,1 C 28,9 C 28,8 C 0,0 C 51 % 60 % 1018,1 hPa 0,0 l/m 0,2 km/h (0 Bft) S-SO 157 0 min 17,7 C 28,8 C 0,0 km/h (0 Bft)
13.08.2021 18:55 28,7 C 20,3 C 25,9 C 28,7 C 28,6 C 0,0 C 52 % 62 % 1017,9 hPa 0,0 l/m 0,0 km/h (0 Bft) S-SO 157 0 min 17,8 C 28,6 C 0,0 km/h (0 Bft)
13.08.2021 19:00 28,7 C 20,3 C 25,9 C 28,7 C 28,7 C 0,0 C 52 % 62 % 1017,9 hPa 0,0 l/m 0,0 km/h (0 Bft) S-SO 157 0 min 17,8 C 28,7 C 0,0 km/h (0 Bft)
13.08.2021 19:05 28,6 C 20,3 C 25,8 C 28,6 C 28,6 C 0,0 C 52 % 62 % 1017,9 hPa 0,0 l/m 0,0 km/h (0 Bft) S-SO 157 0 min 17,8 C 28,6 C 0,0 km/h (0 Bft)
13.08.2021 19:10 28,5 C 20,3 C 25,7 C 28,5 C 28,5 C 0,0 C 53 % 62 % 1017,9 hPa 0,0 l/m 0,0 km/h (0 Bft) S-SO 157 0 min 18,0 C 28,5 C 0,0 km/h (0 Bft)
13.08.2021 19:15 28,4 C 20,4 C 25,5 C 28,3 C 28,2 C 0,0 C 55 % 64 % 1018,0 hPa 0,0 l/m 0,0 km/h (0 Bft) S-SO 157 0 min 18,5 C 28,2 C 0,0 km/h (0 Bft)
13.08.2021 19:20 28,1 C 20,4 C 25,4 C 28,0 C 27,8 C 0,0 C 56 % 64 % 1018,0 hPa 0,0 l/m 0,0 km/h (0 Bft) S-SO 157 0 min 18,5 C 27,8 C 0,0 km/h (0 Bft)
13.08.2021 19:25 27,7 C 20,4 C 25,1 C 27,6 C 27,3 C 0,0 C 56 % 65 % 1018,0 hPa 0,0 l/m 0,0 km/h (0 Bft) S-SO 157 0 min 18,1 C 27,3 C 0,0 km/h (0 Bft)
13.08.2021 19:30 27,6 C 20,4 C 25,1 C 27,4 C 27,0 C 0,0 C 57 % 66 % 1018,0 hPa 0,0 l/m 0,0 km/h (0 Bft) S-SO 157 0 min 18,3 C 27,0 C 0,0 km/h (0 Bft)
13.08.2021 19:35 27,3 C 20,5 C 24,9 C 27,2 C 27,1 C 0,0 C 58 % 67 % 1017,6 hPa 0,0 l/m 0,0 km/h (0 Bft) S-SO 157 0 min 18,3 C 27,1 C 0,0 km/h (0 Bft)
13.08.2021 19:40 27,1 C 20,5 C 24,7 C 27,2 C 27,2 C 0,1 C 59 % 68 % 1017,6 hPa 0,0 l/m 0,0 km/h (0 Bft) S-SO 157 0 min 18,4 C 27,2 C 0,0 km/h (0 Bft)
13.08.2021 19:45 27,0 C 20,5 C 24,6 C 27,0 C 27,0 C 0,0 C 60 % 69 % 1017,6 hPa 0,0 l/m 0,0 km/h (0 Bft) S-SO 157 0 min 18,6 C 27,0 C 0,0 km/h (0 Bft)
13.08.2021 19:50 26,9 C 20,5 C 24,5 C 26,9 C 26,9 C 0,0 C 60 % 70 % 1017,6 hPa 0,0 l/m 0,0 km/h (0 Bft) S-SO 157 0 min 18,5 C 26,9 C 0,0 km/h (0 Bft)
13.08.2021 19:55 26,8 C 20,6 C 24,4 C 26,7 C 26,5 C 0,0 C 60 % 70 % 1016,8 hPa 0,0 l/m 0,0 km/h (0 Bft) S-SO 157 0 min 18,4 C 26,5 C 0,0 km/h (0 Bft)
13.08.2021 20:00 26,7 C 20,6 C 24,2 C 26,5 C 26,2 C 0,0 C 62 % 71 % 1016,8 hPa 0,0 l/m 0,0 km/h (0 Bft) S-SO 157 0 min 18,8 C 26,2 C 0,0 km/h (0 Bft)
13.08.2021 20:05 26,3 C 20,6 C 23,9 C 26,1 C 25,6 C 0,0 C 64 % 72 % 1016,8 hPa 0,0 l/m 0,2 km/h (0 Bft) O-NO 67 0 min 18,9 C 25,6 C 1,6 km/h (1 Bft)
13.08.2021 20:10 25,9 C 20,6 C 23,9 C 25,7 C 25,2 C 0,0 C 65 % 72 % 1016,8 hPa 0,0 l/m 0,2 km/h (0 Bft) O-NO 67 0 min 18,8 C 25,2 C 0,0 km/h (0 Bft)
13.08.2021 20:15 25,7 C 20,6 C 23,6 C 25,4 C 24,8 C 0,0 C 65 % 72 % 1017,6 hPa 0,0 l/m 0,2 km/h (0 Bft) O-NO 67 0 min 18,6 C 24,8 C 0,0 km/h (0 Bft)
13.08.2021 20:20 25,5 C 20,6 C 23,5 C 25,2 C 24,5 C 0,0 C 66 % 73 % 1017,6 hPa 0,0 l/m 0,0 km/h (0 Bft) O-NO 67 0 min 18,7 C 24,5 C 0,0 km/h (0 Bft)
13.08.2021 20:25 25,2 C 20,6 C 23,3 C 24,9 C 24,3 C 0,0 C 66 % 74 % 1017,6 hPa 0,0 l/m 0,0 km/h (0 Bft) O-NO 67 0 min 18,4 C 24,3 C 0,0 km/h (0 Bft)
13.08.2021 20:30 25,1 C 20,6 C 23,2 C 24,7 C 23,9 C 0,0 C 67 % 74 % 1017,6 hPa 0,0 l/m 0,0 km/h (0 Bft) O-NO 67 0 min 18,5 C 23,9 C 0,0 km/h (0 Bft)
13.08.2021 20:35 24,8 C 20,6 C 23,0 C 24,4 C 23,7 C 0,0 C 67 % 75 % 1017,8 hPa 0,0 l/m 0,0 km/h (0 Bft) O-NO 67 0 min 18,2 C 23,7 C 0,0 km/h (0 Bft)
13.08.2021 20:40 24,7 C 20,6 C 22,9 C 24,3 C 23,5 C 0,0 C 68 % 75 % 1017,8 hPa 0,0 l/m 0,0 km/h (0 Bft) O-NO 67 0 min 18,4 C 23,5 C 0,0 km/h (0 Bft)
13.08.2021 20:45 24,5 C 20,6 C 22,7 C 24,1 C 23,2 C 0,0 C 68 % 76 % 1017,8 hPa 0,0 l/m 0,0 km/h (0 Bft) O-NO 67 0 min 18,2 C 23,2 C 0,0 km/h (0 Bft)
13.08.2021 20:50 24,3 C 20,7 C 22,5 C 23,9 C 23,1 C 0,0 C 68 % 76 % 1017,8 hPa 0,0 l/m 0,0 km/h (0 Bft) O-NO 67 0 min 18,0 C 23,1 C 0,0 km/h (0 Bft)
13.08.2021 20:55 24,0 C 20,7 C 22,5 C 23,6 C 22,7 C 0,0 C 69 % 77 % 1018,1 hPa 0,0 l/m 0,0 km/h (0 Bft) O-NO 67 0 min 18,0 C 22,7 C 0,0 km/h (0 Bft)
13.08.2021 21:00 23,9 C 20,7 C 22,3 C 23,4 C 22,4 C 0,0 C 69 % 77 % 1018,1 hPa 0,0 l/m 0,0 km/h (0 Bft) O-NO 67 0 min 17,9 C 22,4 C 0,0 km/h (0 Bft)
13.08.2021 21:05 23,7 C 20,7 C 22,2 C 23,2 C 22,1 C 0,0 C 70 % 78 % 1018,1 hPa 0,0 l/m 0,0 km/h (0 Bft) O-NO 67 0 min 17,9 C 22,1 C 0,0 km/h (0 Bft)
13.08.2021 21:10 23,6 C 20,7 C 22,1 C 23,0 C 21,9 C 0,0 C 71 % 78 % 1018,1 hPa 0,0 l/m 0,0 km/h (0 Bft) O-NO 67 0 min 18,0 C 21,9 C 0,0 km/h (0 Bft)
13.08.2021 21:15 23,3 C 20,7 C 21,8 C 22,8 C 21,8 C 0,0 C 72 % 79 % 1018,2 hPa 0,0 l/m 0,0 km/h (0 Bft) O-NO 67 0 min 18,0 C 21,8 C 0,0 km/h (0 Bft)
13.08.2021 21:20 23,1 C 20,8 C 21,7 C 22,7 C 21,8 C 0,0 C 73 % 79 % 1018,2 hPa 0,0 l/m 0,0 km/h (0 Bft) O-NO 67 0 min 18,0 C 21,8 C 0,0 km/h (0 Bft)
13.08.2021 21:25 22,9 C 20,8 C 21,5 C 22,5 C 21,7 C 0,0 C 74 % 80 % 1018,2 hPa 0,0 l/m 0,0 km/h (0 Bft) O-NO 67 0 min 18,0 C 21,7 C 0,0 km/h (0 Bft)
13.08.2021 21:30 22,8 C 20,8 C 21,5 C 22,4 C 21,6 C 0,0 C 74 % 80 % 1018,2 hPa 0,0 l/m 0,0 km/h (0 Bft) O-NO 67 0 min 17,9 C 21,6 C 0,0 km/h (0 Bft)
13.08.2021 21:35 22,7 C 20,9 C 21,4 C 22,3 C 21,6 C 0,0 C 75 % 81 % 1018,4 hPa 0,0 l/m 0,0 km/h (0 Bft) O-NO 67 0 min 18,0 C 21,6 C 0,0 km/h (0 Bft)
13.08.2021 21:40 22,5 C 20,9 C 21,3 C 22,2 C 21,5 C 0,0 C 75 % 81 % 1018,4 hPa 0,0 l/m 0,0 km/h (0 Bft) O-NO 67 0 min 17,8 C 21,5 C 0,0 km/h (0 Bft)
13.08.2021 21:45 22,4 C 20,9 C 21,2 C 22,1 C 21,4 C 0,0 C 76 % 81 % 1018,4 hPa 0,0 l/m 0,0 km/h (0 Bft) O-NO 67 0 min 18,0 C 21,4 C 0,0 km/h (0 Bft)
13.08.2021 21:50 22,3 C 20,9 C 21,1 C 22,0 C 21,4 C 0,0 C 76 % 81 % 1018,4 hPa 0,0 l/m 0,0 km/h (0 Bft) O-NO 67 0 min 17,9 C 21,4 C 0,0 km/h (0 Bft)
13.08.2021 21:55 22,2 C 20,9 C 21,1 C 21,9 C 21,4 C 0,0 C 77 % 82 % 1018,2 hPa 0,0 l/m 0,0 km/h (0 Bft) O-NO 67 0 min 18,0 C 21,4 C 0,0 km/h (0 Bft)
13.08.2021 22:00 22,1 C 20,9 C 21,0 C 21,8 C 21,2 C 0,0 C 76 % 82 % 1018,2 hPa 0,0 l/m 0,0 km/h (0 Bft) O-NO 67 0 min 17,7 C 21,2 C 0,0 km/h (0 Bft)
13.08.2021 22:05 22,1 C 20,9 C 21,0 C 21,8 C 21,1 C 0,0 C 77 % 83 % 1018,2 hPa 0,0 l/m 0,0 km/h (0 Bft) O-NO 67 0 min 17,9 C 21,1 C 0,0 km/h (0 Bft)
13.08.2021 22:10 22,0 C 20,9 C 20,9 C 21,7 C 21,0 C 0,0 C 78 % 82 % 1018,2 hPa 0,0 l/m 0,0 km/h (0 Bft) O-NO 67 0 min 18,0 C 21,0 C 0,0 km/h (0 Bft)
13.08.2021 22:15 21,9 C 20,9 C 20,8 C 21,5 C 20,8 C 0,0 C 78 % 83 % 1018,3 hPa 0,0 l/m 0,0 km/h (0 Bft) O-NO 67 0 min 17,9 C 20,8 C 0,0 km/h (0 Bft)
13.08.2021 22:20 21,9 C 20,9 C 20,7 C 21,5 C 20,8 C 0,0 C 78 % 83 % 1018,3 hPa 0,0 l/m 0,0 km/h (0 Bft) O-NO 67 0 min 17,9 C 20,8 C 0,0 km/h (0 Bft)
13.08.2021 22:25 21,7 C 20,9 C 20,7 C 21,3 C 20,6 C 0,0 C 79 % 84 % 1018,3 hPa 0,0 l/m 0,0 km/h (0 Bft) O-NO 67 0 min 17,9 C 20,6 C 0,0 km/h (0 Bft)
13.08.2021 22:30 21,7 C 20,9 C 20,7 C 21,3 C 20,5 C 0,0 C 79 % 84 % 1018,3 hPa 0,0 l/m 0,0 km/h (0 Bft) O-NO 67 0 min 17,9 C 20,5 C 0,0 km/h (0 Bft)
13.08.2021 22:35 21,5 C 20,9 C 20,5 C 21,1 C 20,4 C 0,0 C 79 % 84 % 1018,4 hPa 0,0 l/m 0,0 km/h (0 Bft) O-NO 67 0 min 17,7 C 20,4 C 0,0 km/h (0 Bft)
13.08.2021 22:40 21,5 C 20,9 C 20,5 C 21,1 C 20,4 C 0,0 C 79 % 84 % 1018,4 hPa 0,0 l/m 0,0 km/h (0 Bft) O-NO 67 0 min 17,7 C 20,4 C 0,0 km/h (0 Bft)
13.08.2021 22:45 21,3 C 20,9 C 20,4 C 20,9 C 20,2 C 0,0 C 79 % 85 % 1018,4 hPa 0,0 l/m 0,0 km/h (0 Bft) O-NO 67 0 min 17,5 C 20,2 C 0,0 km/h (0 Bft)
13.08.2021 22:50 21,2 C 21,0 C 20,4 C 20,9 C 20,2 C 0,0 C 79 % 85 % 1018,4 hPa 0,0 l/m 0,0 km/h (0 Bft) O-NO 67 0 min 17,4 C 20,2 C 0,0 km/h (0 Bft)
13.08.2021 22:55 21,1 C 21,0 C 20,3 C 20,8 C 20,2 C 0,0 C 80 % 85 % 1018,6 hPa 0,0 l/m 0,0 km/h (0 Bft) O-NO 67 0 min 17,5 C 20,2 C 0,0 km/h (0 Bft)
13.08.2021 23:00 21,1 C 21,0 C 20,3 C 20,8 C 20,1 C 0,0 C 80 % 85 % 1018,6 hPa 0,0 l/m 0,0 km/h (0 Bft) O-NO 67 0 min 17,5 C 20,1 C 0,0 km/h (0 Bft)
13.08.2021 23:05 21,1 C 21,0 C 20,2 C 20,8 C 20,1 C 0,0 C 80 % 86 % 1018,6 hPa 0,0 l/m 0,0 km/h (0 Bft) O-NO 67 0 min 17,5 C 20,1 C 0,0 km/h (0 Bft)
13.08.2021 23:10 20,9 C 21,0 C 20,1 C 20,6 C 20,0 C 0,0 C 80 % 86 % 1018,6 hPa 0,0 l/m 0,0 km/h (0 Bft) O-NO 67 0 min 17,3 C 20,0 C 0,0 km/h (0 Bft)
13.08.2021 23:15 20,8 C 21,0 C 20,1 C 20,5 C 20,0 C 0,0 C 81 % 86 % 1018,1 hPa 0,0 l/m 0,0 km/h (0 Bft) O-NO 67 0 min 17,4 C 20,0 C 0,0 km/h (0 Bft)
13.08.2021 23:20 20,8 C 20,9 C 20,0 C 20,5 C 20,0 C 0,0 C 81 % 86 % 1018,1 hPa 0,0 l/m 0,0 km/h (0 Bft) O-NO 67 0 min 17,4 C 20,0 C 0,0 km/h (0 Bft)
13.08.2021 23:25 20,8 C 20,9 C 20,1 C 20,5 C 20,0 C 0,0 C 81 % 86 % 1018,1 hPa 0,0 l/m 0,0 km/h (0 Bft) O-NO 67 0 min 17,4 C 20,0 C 0,0 km/h (0 Bft)
13.08.2021 23:30 20,7 C 21,0 C 20,0 C 20,5 C 20,0 C 0,0 C 82 % 86 % 1018,1 hPa 0,0 l/m 0,0 km/h (0 Bft) O-NO 67 0 min 17,5 C 20,0 C 0,0 km/h (0 Bft)
13.08.2021 23:35 20,7 C 21,0 C 20,0 C 20,5 C 20,0 C 0,0 C 82 % 86 % 1018,1 hPa 0,0 l/m 0,0 km/h (0 Bft) O-NO 67 0 min 17,5 C 20,0 C 0,0 km/h (0 Bft)
13.08.2021 23:40 20,6 C 21,0 C 20,0 C 20,4 C 20,0 C 0,0 C 82 % 86 % 1018,1 hPa 0,0 l/m 0,0 km/h (0 Bft) O-NO 67 0 min 17,4 C 20,0 C 0,0 km/h (0 Bft)
13.08.2021 23:45 20,7 C 20,9 C 19,9 C 20,4 C 19,9 C 0,0 C 82 % 86 % 1018,1 hPa 0,0 l/m 0,0 km/h (0 Bft) O-NO 67 0 min 17,5 C 19,9 C 0,0 km/h (0 Bft)
13.08.2021 23:50 20,5 C 21,0 C 19,9 C 20,3 C 19,8 C 0,0 C 82 % 87 % 1018,1 hPa 0,0 l/m 0,0 km/h (0 Bft) O-NO 67 0 min 17,3 C 19,8 C 0,0 km/h (0 Bft)
13.08.2021 23:55 20,5 C 21,0 C 19,9 C 20,2 C 19,7 C 0,0 C 83 % 87 % 1018,4 hPa 0,0 l/m 0,0 km/h (0 Bft) O-NO 67 0 min 17,5 C 19,7 C 0,0 km/h (0 Bft)
_ Min-Zeit 06:50 08:55 06:35 06:40 06:25 00:00 14:15 15:10 19:55 - 00:00 - - - 06:50 06:25 00:00
Minimum _ 13,6 C 18,6 C 13,9 C 13,5 C 13,2 C 0,0 C 45 % 53 % 1016,8 hPa - 0,0 km/h (0 Bft) - - - 11,5 C 13,2 C 0,0 km/h (0 Bft)
_ Max-Zeit 14:35 22:50 15:35 14:35 14:35 08:15 04:05 05:50 02:15 00:00 15:35 - - 07:15 20:05 14:35 15:40
Maximum _ 30,9 C 21,0 C 27,9 C 36,7 C 36,7 C 11,3 C 87 % 92 % 1019,9 hPa 0,0 l/m 2,4 km/h
S-SW (1 Bft)
- - 5 min 18,9 C 36,7 C 9,5 km/h
S (2 Bft)
Durchschnitt _ 22,3 C 19,6 C 20,6 C 24,2 C 23,9 C 2,1 C 70 % 77 % 1018,9 hPa #0,0 l/m 0,3 km/h (0 Bft) SW - #6:30 h 15,9 C 23,9 C 0,5 km/h (0 Bft)
2021 www.wetterstation-wechselburg.de